Time,TemperatureF,DewpointF,PressureIn,WindDirection,WindDirectionDegrees,WindSpeedMPH,WindSpeedGustMPH,Humidity,HourlyPrecipIn,Conditions,Clouds,dailyrainin,SoftwareType,DateUTC
2013-02-03 00:01:00,32.4,24.0,29.47,West,260,0.0,1.0,71,0.00,,---,0.00,VWS V14.00,2013-02-03 06:01:00,
2013-02-03 00:06:00,32.0,23.7,29.47,West,260,0.0,1.0,71,0.00,,---,0.00,VWS V14.00,2013-02-03 06:06:00,
2013-02-03 00:11:00,31.6,23.3,29.47,West,260,0.0,1.0,71,0.00,,---,0.00,VWS V14.00,2013-02-03 06:11:00,
2013-02-03 00:16:00,31.1,23.1,29.47,West,260,0.0,1.0,72,0.00,,---,0.00,VWS V14.00,2013-02-03 06:16:00,
2013-02-03 00:21:00,31.1,23.1,29.47,West,260,0.0,1.0,72,0.00,,---,0.00,VWS V14.00,2013-02-03 06:21:00,
2013-02-03 00:26:00,30.6,22.6,29.47,West,260,0.0,1.0,72,0.00,,---,0.00,VWS V14.00,2013-02-03 06:26:00,
2013-02-03 00:31:00,30.4,22.8,29.47,West,260,0.0,1.0,73,0.00,,---,0.00,VWS V14.00,2013-02-03 06:31:00,
2013-02-03 00:36:00,30.4,22.8,29.47,West,260,0.0,1.0,73,0.00,,---,0.00,VWS V14.00,2013-02-03 06:36:00,
2013-02-03 00:41:00,30.7,23.5,29.47,West,260,0.0,1.0,74,0.00,,---,0.00,VWS V14.00,2013-02-03 06:41:00,
2013-02-03 00:46:00,30.9,23.6,29.47,West,260,0.0,1.0,74,0.00,,---,0.00,VWS V14.00,2013-02-03 06:46:00,
2013-02-03 00:51:00,31.1,24.1,29.44,West,260,0.0,1.0,75,0.00,,---,0.00,VWS V14.00,2013-02-03 06:51:00,
2013-02-03 00:56:00,31.1,24.1,29.44,West,260,0.0,1.0,75,0.00,,---,0.00,VWS V14.00,2013-02-03 06:56:00,
2013-02-03 01:01:00,31.3,24.3,29.44,West,260,0.0,1.0,75,0.00,,---,0.00,VWS V14.00,2013-02-03 07:01:00,
2013-02-03 01:06:00,31.5,24.8,29.44,West,260,0.0,1.0,76,0.00,,---,0.00,VWS V14.00,2013-02-03 07:06:00,
2013-02-03 01:11:00,31.6,25.0,29.44,West,260,0.0,1.0,76,0.00,,---,0.00,VWS V14.00,2013-02-03 07:11:00,
2013-02-03 01:16:00,31.6,25.0,29.44,West,260,0.0,1.0,76,0.00,,---,0.00,VWS V14.00,2013-02-03 07:16:00,
2013-02-03 01:21:00,32.0,25.6,29.44,West,260,0.0,1.0,77,0.00,,---,0.00,VWS V14.00,2013-02-03 07:21:00,
2013-02-03 01:26:00,32.2,25.8,29.44,West,260,0.0,1.0,77,0.00,,---,0.00,VWS V14.00,2013-02-03 07:26:00,
2013-02-03 01:31:00,32.5,26.1,29.44,West,260,0.0,1.0,77,0.00,,---,0.00,VWS V14.00,2013-02-03 07:31:00,
2013-02-03 01:36:00,32.5,26.5,29.44,West,260,0.0,1.0,78,0.00,,---,0.00,VWS V14.00,2013-02-03 07:36:00,
2013-02-03 01:41:00,32.5,26.5,29.44,West,260,0.0,1.0,78,0.00,,---,0.00,VWS V14.00,2013-02-03 07:41:00,
2013-02-03 01:46:00,32.5,26.5,29.44,West,260,0.0,1.0,78,0.00,,---,0.00,VWS V14.00,2013-02-03 07:46:00,
2013-02-03 01:51:00,33.1,27.0,29.44,West,260,0.0,1.0,78,0.00,,---,0.00,VWS V14.00,2013-02-03 07:51:00,
2013-02-03 01:56:00,33.1,27.0,29.44,West,260,0.0,1.0,78,0.00,,---,0.00,VWS V14.00,2013-02-03 07:56:00,
2013-02-03 02:01:00,33.1,27.0,29.44,West,260,0.0,1.0,78,0.00,,---,0.00,VWS V14.00,2013-02-03 08:01:00,
2013-02-03 02:06:00,33.4,27.3,29.44,West,259,0.0,1.0,78,0.00,,---,0.00,VWS V14.00,2013-02-03 08:06:00,
2013-02-03 02:11:00,33.6,27.8,29.41,SSW,210,4.0,6.6,79,0.00,,---,0.00,VWS V14.00,2013-02-03 08:11:00,
2013-02-03 02:16:00,34.0,28.2,29.41,SW,214,4.7,8.2,79,0.00,,---,0.00,VWS V14.00,2013-02-03 08:16:00,
2013-02-03 02:21:00,34.3,28.5,29.41,SW,216,4.0,5.8,79,0.00,,---,0.00,VWS V14.00,2013-02-03 08:21:00,
2013-02-03 02:26:00,34.3,28.5,29.41,South,185,5.4,7.4,79,0.00,,---,0.00,VWS V14.00,2013-02-03 08:26:00,
2013-02-03 02:31:00,34.5,28.7,29.41,SSW,193,4.0,5.8,79,0.00,,---,0.00,VWS V14.00,2013-02-03 08:31:00,
2013-02-03 02:36:00,34.5,28.7,29.41,South,185,4.7,6.6,79,0.00,,---,0.00,VWS V14.00,2013-02-03 08:36:00,
2013-02-03 02:41:00,34.5,28.7,29.41,SSW,202,3.4,5.0,79,0.00,,---,0.00,VWS V14.00,2013-02-03 08:41:00,
2013-02-03 02:46:00,34.5,28.7,29.41,SSW,192,4.0,5.8,79,0.00,,---,0.00,VWS V14.00,2013-02-03 08:46:00,
2013-02-03 02:51:00,34.5,28.7,29.38,SSW,194,0.0,1.0,79,0.00,,---,0.00,VWS V14.00,2013-02-03 08:51:00,
2013-02-03 02:56:00,34.5,28.7,29.38,SW,218,4.0,5.8,79,0.00,,---,0.00,VWS V14.00,2013-02-03 08:56:00,
2013-02-03 03:01:00,34.5,28.7,29.38,WSW,237,4.7,6.6,79,0.00,,---,0.00,VWS V14.00,2013-02-03 09:01:00,
2013-02-03 03:06:00,34.7,28.9,29.38,SW,227,4.0,5.8,79,0.00,,---,0.00,VWS V14.00,2013-02-03 09:06:00,
2013-02-03 03:11:00,34.9,29.4,29.38,SSW,205,5.4,7.4,80,0.00,,---,0.00,VWS V14.00,2013-02-03 09:11:00,
2013-02-03 03:16:00,34.9,29.4,29.38,SSW,206,4.0,5.8,80,0.00,,---,0.00,VWS V14.00,2013-02-03 09:16:00,
2013-02-03 03:21:00,34.9,29.4,29.38,SSW,209,4.7,6.6,80,0.00,,---,0.00,VWS V14.00,2013-02-03 09:21:00,
2013-02-03 03:26:00,34.7,29.2,29.38,SSW,213,0.0,1.0,80,0.00,,---,0.00,VWS V14.00,2013-02-03 09:26:00,
2013-02-03 03:31:00,34.7,29.2,29.38,WSW,238,4.0,5.8,80,0.00,,---,0.00,VWS V14.00,2013-02-03 09:31:00,
2013-02-03 03:36:00,34.9,29.6,29.38,SSW,210,4.7,6.6,81,0.00,,---,0.00,VWS V14.00,2013-02-03 09:36:00,
2013-02-03 03:41:00,34.9,29.6,29.38,WSW,237,5.4,8.2,81,0.00,,---,0.00,VWS V14.00,2013-02-03 09:41:00,
2013-02-03 03:46:00,34.7,29.5,29.38,SW,222,6.0,8.2,81,0.00,,---,0.00,VWS V14.00,2013-02-03 09:46:00,
2013-02-03 03:51:00,34.9,29.6,29.38,WSW,240,4.7,6.6,81,0.00,,---,0.00,VWS V14.00,2013-02-03 09:51:00,
2013-02-03 03:56:00,34.9,29.6,29.38,WSW,249,11.4,14.7,81,0.00,,---,0.00,VWS V14.00,2013-02-03 09:56:00,
2013-02-03 04:01:00,35.1,29.8,29.38,WSW,256,9.4,12.3,81,0.00,,---,0.00,VWS V14.00,2013-02-03 10:01:00,
2013-02-03 04:06:00,35.1,29.8,29.38,SW,220,4.7,8.2,81,0.00,,---,0.00,VWS V14.00,2013-02-03 10:06:00,
2013-02-03 04:11:00,35.1,29.8,29.38,SW,236,6.0,8.2,81,0.00,,---,0.00,VWS V14.00,2013-02-03 10:11:00,
2013-02-03 04:16:00,35.1,29.8,29.38,WSW,245,6.0,8.2,81,0.00,,---,0.00,VWS V14.00,2013-02-03 10:16:00,
2013-02-03 04:21:00,35.1,29.8,29.38,West,262,5.4,10.7,81,0.00,,---,0.00,VWS V14.00,2013-02-03 10:21:00,
2013-02-03 04:26:00,34.9,29.4,29.38,SW,225,5.4,7.4,80,0.00,,---,0.00,VWS V14.00,2013-02-03 10:26:00,
2013-02-03 04:31:00,34.9,29.4,29.38,WSW,241,4.0,5.8,80,0.00,,---,0.00,VWS V14.00,2013-02-03 10:31:00,
2013-02-03 04:36:00,34.9,29.4,29.38,West,264,5.4,8.2,80,0.00,,---,0.00,VWS V14.00,2013-02-03 10:36:00,
2013-02-03 04:42:00,35.1,29.5,29.38,West,264,6.7,9.1,80,0.00,,---,0.00,VWS V14.00,2013-02-03 10:42:00,
2013-02-03 04:46:00,34.9,29.4,29.38,West,271,6.0,9.9,80,0.00,,---,0.00,VWS V14.00,2013-02-03 10:46:00,
2013-02-03 04:52:00,35.1,29.5,29.38,West,262,5.4,7.4,80,0.00,,---,0.00,VWS V14.00,2013-02-03 10:52:00,
2013-02-03 04:57:00,35.1,29.5,29.38,WSW,256,8.1,11.5,80,0.00,,---,0.00,VWS V14.00,2013-02-03 10:57:00,
2013-02-03 05:02:00,35.1,29.5,29.38,WNW,292,8.7,11.5,80,0.00,,---,0.00,VWS V14.00,2013-02-03 11:02:00,
2013-02-03 05:07:00,35.4,29.9,29.38,West,268,8.1,10.7,80,0.00,,---,0.00,VWS V14.00,2013-02-03 11:07:00,
2013-02-03 05:12:00,36.0,30.1,29.38,West,277,8.1,10.7,79,0.00,,---,0.00,VWS V14.00,2013-02-03 11:12:00,
2013-02-03 05:17:00,36.3,30.4,29.38,West,276,9.4,12.3,79,0.00,,---,0.00,VWS V14.00,2013-02-03 11:17:00,
2013-02-03 05:22:00,36.7,30.5,29.38,WNW,286,8.7,11.5,78,0.00,,---,0.00,VWS V14.00,2013-02-03 11:22:00,
2013-02-03 05:27:00,36.9,30.3,29.38,WNW,290,8.7,11.5,77,0.00,,---,0.00,VWS V14.00,2013-02-03 11:27:00,
2013-02-03 05:32:00,36.9,30.0,29.38,WNW,294,9.4,12.3,76,0.00,,---,0.00,VWS V14.00,2013-02-03 11:32:00,
2013-02-03 05:37:00,37.0,29.9,29.38,West,279,8.1,10.7,75,0.00,,---,0.00,VWS V14.00,2013-02-03 11:37:00,
2013-02-03 05:42:00,37.0,29.9,29.38,WNW,285,9.4,12.3,75,0.00,,---,0.00,VWS V14.00,2013-02-03 11:42:00,
2013-02-03 05:47:00,37.0,29.5,29.38,WSW,254,8.7,11.5,74,0.00,,---,0.00,VWS V14.00,2013-02-03 11:47:00,
2013-02-03 05:52:00,37.0,29.5,29.38,West,278,5.4,10.7,74,0.00,,---,0.00,VWS V14.00,2013-02-03 11:52:00,
2013-02-03 05:57:00,37.0,29.5,29.38,WNW,284,9.4,12.3,74,0.00,,---,0.00,VWS V14.00,2013-02-03 11:57:00,
2013-02-03 06:02:00,36.9,29.0,29.41,West,278,7.4,9.9,73,0.00,,---,0.00,VWS V14.00,2013-02-03 12:02:00,
2013-02-03 06:07:00,36.9,29.0,29.41,NW,305,8.1,11.5,73,0.00,,---,0.00,VWS V14.00,2013-02-03 12:07:00,
2013-02-03 06:12:00,37.0,29.2,29.41,WNW,285,9.4,12.3,73,0.00,,---,0.00,VWS V14.00,2013-02-03 12:12:00,
2013-02-03 06:17:00,37.0,29.2,29.41,West,279,9.4,12.3,73,0.00,,---,0.00,VWS V14.00,2013-02-03 12:17:00,
2013-02-03 06:22:00,37.0,29.2,29.41,WNW,282,11.4,14.7,73,0.00,,---,0.00,VWS V14.00,2013-02-03 12:22:00,
2013-02-03 06:27:00,37.0,29.2,29.41,WNW,291,11.4,14.7,73,0.00,,---,0.00,VWS V14.00,2013-02-03 12:27:00,
2013-02-03 06:32:00,37.0,29.2,29.41,WNW,286,9.4,12.3,73,0.00,,---,0.00,VWS V14.00,2013-02-03 12:32:00,
2013-02-03 06:37:00,37.0,28.9,29.41,WNW,283,9.4,12.3,72,0.00,,---,0.00,VWS V14.00,2013-02-03 12:37:00,
2013-02-03 06:42:00,37.0,29.2,29.41,West,278,8.7,11.5,73,0.00,,---,0.00,VWS V14.00,2013-02-03 12:42:00,
2013-02-03 06:47:00,37.2,29.0,29.44,West,278,11.4,14.7,72,0.00,,---,0.00,VWS V14.00,2013-02-03 12:47:00,
2013-02-03 06:52:00,37.2,29.0,29.44,WNW,285,8.7,11.5,72,0.00,,---,0.00,VWS V14.00,2013-02-03 12:52:00,
2013-02-03 06:57:00,37.2,29.0,29.44,West,276,9.4,12.3,72,0.00,,---,0.00,VWS V14.00,2013-02-03 12:57:00,
2013-02-03 07:02:00,37.0,28.9,29.44,WNW,283,8.1,14.7,72,0.00,,---,0.00,VWS V14.00,2013-02-03 13:02:00,
2013-02-03 07:07:00,37.2,29.0,29.44,West,277,10.1,13.1,72,0.00,,---,0.00,VWS V14.00,2013-02-03 13:07:00,
2013-02-03 07:12:00,37.4,29.2,29.44,WNW,290,9.4,15.5,72,0.00,,---,0.00,VWS V14.00,2013-02-03 13:12:00,
2013-02-03 07:17:00,37.2,29.0,29.44,West,279,8.7,11.5,72,0.00,,---,0.00,VWS V14.00,2013-02-03 13:17:00,
2013-02-03 07:22:00,37.2,29.0,29.44,West,274,8.7,11.5,72,0.00,,---,0.00,VWS V14.00,2013-02-03 13:22:00,
2013-02-03 07:27:00,37.4,28.9,29.44,WNW,285,8.7,11.5,71,0.00,,---,0.00,VWS V14.00,2013-02-03 13:27:00,
2013-02-03 07:32:00,37.4,28.9,29.44,WNW,296,5.4,9.9,71,0.00,,---,0.00,VWS V14.00,2013-02-03 13:32:00,
2013-02-03 07:37:00,37.6,29.0,29.44,West,280,9.4,13.1,71,0.00,,---,0.00,VWS V14.00,2013-02-03 13:37:00,
2013-02-03 07:42:00,37.6,29.0,29.44,WNW,299,6.0,8.2,71,0.00,,---,0.00,VWS V14.00,2013-02-03 13:42:00,
2013-02-03 07:47:00,37.8,29.2,29.44,WNW,294,5.4,7.4,71,0.00,,---,0.00,VWS V14.00,2013-02-03 13:47:00,
2013-02-03 07:52:00,37.8,29.2,29.44,WNW,295,8.1,10.7,71,0.00,,---,0.00,VWS V14.00,2013-02-03 13:52:00,
2013-02-03 07:57:00,37.9,29.4,29.44,WNW,297,8.1,12.3,71,0.00,,---,0.00,VWS V14.00,2013-02-03 13:57:00,
2013-02-03 08:02:00,38.1,29.6,29.44,NW,313,7.4,9.9,71,0.00,,---,0.00,VWS V14.00,2013-02-03 14:02:00,
2013-02-03 08:07:00,38.3,29.7,29.47,NW,309,6.0,11.5,71,0.00,,---,0.00,VWS V14.00,2013-02-03 14:07:00,
2013-02-03 08:12:00,38.7,29.7,29.47,West,271,8.1,10.7,70,0.00,,---,0.00,VWS V14.00,2013-02-03 14:12:00,
2013-02-03 08:17:00,38.8,29.9,29.47,WNW,291,8.1,10.7,70,0.00,,---,0.00,VWS V14.00,2013-02-03 14:17:00,
2013-02-03 08:22:00,38.8,29.9,29.47,WNW,294,7.4,10.7,70,0.00,,---,0.00,VWS V14.00,2013-02-03 14:22:00,
2013-02-03 08:27:00,39.0,29.7,29.44,WNW,297,8.1,10.7,69,0.00,,---,0.00,VWS V14.00,2013-02-03 14:27:00,
2013-02-03 08:32:00,39.2,29.5,29.44,NNW,344,12.1,15.5,68,0.00,,---,0.00,VWS V14.00,2013-02-03 14:32:00,
2013-02-03 08:37:00,39.4,29.7,29.44,WNW,295,12.4,15.9,68,0.00,,---,0.00,VWS V14.00,2013-02-03 14:37:00,
2013-02-03 08:42:00,39.4,29.7,29.44,NNW,343,8.1,11.5,68,0.00,,---,0.00,VWS V14.00,2013-02-03 14:42:00,
2013-02-03 08:47:00,39.7,29.3,29.44,NW,305,11.4,14.7,66,0.00,,---,0.00,VWS V14.00,2013-02-03 14:47:00,
2013-02-03 08:52:00,39.7,28.6,29.47,NNW,332,11.4,14.7,64,0.00,,---,0.00,VWS V14.00,2013-02-03 14:52:00,
2013-02-03 08:57:00,40.1,28.1,29.47,NW,308,8.7,19.9,62,0.00,,---,0.00,VWS V14.00,2013-02-03 14:57:00,
2013-02-03 09:02:00,40.1,28.1,29.47,WNW,297,8.1,10.7,62,0.00,,---,0.00,VWS V14.00,2013-02-03 15:02:00,
2013-02-03 09:07:00,40.3,28.3,29.47,WNW,289,10.7,16.7,62,0.00,,---,0.00,VWS V14.00,2013-02-03 15:07:00,
2013-02-03 09:12:00,40.6,28.3,29.47,NNW,334,18.5,23.1,61,0.00,,---,0.00,VWS V14.00,2013-02-03 15:12:00,
2013-02-03 09:17:00,40.6,27.5,29.47,West,265,12.4,15.9,59,0.00,,---,0.00,VWS V14.00,2013-02-03 15:17:00,
2013-02-03 09:22:00,41.0,27.4,29.47,SSW,201,7.4,15.5,58,0.00,,---,0.00,VWS V14.00,2013-02-03 15:22:00,
2013-02-03 09:27:00,41.4,27.7,29.47,NNW,346,8.1,12.3,58,0.00,,---,0.00,VWS V14.00,2013-02-03 15:27:00,
2013-02-03 09:32:00,41.9,27.8,29.47,WNW,293,4.7,15.5,57,0.00,,---,0.00,VWS V14.00,2013-02-03 15:32:00,
2013-02-03 09:37:00,41.4,26.4,29.47,NW,311,13.1,16.7,55,0.00,,---,0.00,VWS V14.00,2013-02-03 15:37:00,
2013-02-03 09:42:00,41.0,26.1,29.47,NW,316,12.1,15.5,55,0.00,,---,0.00,VWS V14.00,2013-02-03 15:42:00,
2013-02-03 09:47:00,41.2,26.7,29.47,NW,319,12.1,15.5,56,0.00,,---,0.00,VWS V14.00,2013-02-03 15:47:00,
2013-02-03 09:52:00,41.0,26.1,29.47,NW,307,7.4,14.7,55,0.00,,---,0.00,VWS V14.00,2013-02-03 15:52:00,
2013-02-03 09:57:00,41.0,26.1,29.47,WNW,293,8.7,11.5,55,0.00,,---,0.00,VWS V14.00,2013-02-03 15:57:00,
2013-02-03 10:02:00,41.2,26.2,29.47,NW,317,21.1,26.4,55,0.00,,---,0.00,VWS V14.00,2013-02-03 16:02:00,
2013-02-03 10:07:00,41.7,26.8,29.47,NNW,338,13.1,20.7,55,0.00,,---,0.00,VWS V14.00,2013-02-03 16:07:00,
2013-02-03 10:12:00,42.1,26.6,29.47,WNW,298,15.8,19.9,54,0.00,,---,0.00,VWS V14.00,2013-02-03 16:12:00,
2013-02-03 10:17:00,41.9,26.0,29.47,NNW,337,12.1,23.1,53,0.00,,---,0.00,VWS V14.00,2013-02-03 16:17:00,
2013-02-03 10:22:00,41.7,25.9,29.47,West,264,8.1,15.5,53,0.00,,---,0.00,VWS V14.00,2013-02-03 16:22:00,
2013-02-03 10:27:00,41.9,26.0,29.47,WNW,283,11.4,14.7,53,0.00,,---,0.00,VWS V14.00,2013-02-03 16:27:00,
2013-02-03 10:32:00,42.3,25.9,29.47,NW,322,9.4,12.3,52,0.00,,---,0.00,VWS V14.00,2013-02-03 16:32:00,
2013-02-03 10:37:00,42.4,24.6,29.50,NW,317,21.1,26.4,49,0.00,,---,0.00,VWS V14.00,2013-02-03 16:37:00,
2013-02-03 10:42:00,42.6,24.3,29.50,NNW,329,15.8,27.2,48,0.00,,---,0.00,VWS V14.00,2013-02-03 16:42:00,
2013-02-03 10:47:00,43.2,24.8,29.50,WNW,289,9.4,16.7,48,0.00,,---,0.00,VWS V14.00,2013-02-03 16:47:00,
2013-02-03 10:52:00,43.3,25.0,29.50,WNW,293,19.1,24.0,48,0.00,,---,0.00,VWS V14.00,2013-02-03 16:52:00,
2013-02-03 10:57:00,43.5,25.1,29.50,NW,314,18.5,23.1,48,0.00,,---,0.00,VWS V14.00,2013-02-03 16:57:00,
2013-02-03 11:02:00,43.5,25.1,29.50,North,357,8.1,10.7,48,0.00,,---,0.00,VWS V14.00,2013-02-03 17:02:00,
2013-02-03 11:07:00,42.6,24.8,29.50,NNW,339,12.4,15.9,49,0.00,,---,0.00,VWS V14.00,2013-02-03 17:07:00,
2013-02-03 11:12:00,42.3,23.5,29.50,NW,314,15.1,24.8,47,0.00,,---,0.00,VWS V14.00,2013-02-03 17:12:00,
2013-02-03 11:17:00,42.3,23.5,29.50,NNW,341,12.4,24.0,47,0.00,,---,0.00,VWS V14.00,2013-02-03 17:17:00,
2013-02-03 11:22:00,41.9,22.6,29.50,NW,321,12.1,15.5,46,0.00,,---,0.00,VWS V14.00,2013-02-03 17:22:00,
2013-02-03 11:27:00,42.4,23.6,29.50,NNW,337,9.4,28.0,47,0.00,,---,0.00,VWS V14.00,2013-02-03 17:27:00,
2013-02-03 11:32:00,43.3,25.0,29.50,North,353,19.1,24.0,48,0.00,,---,0.00,VWS V14.00,2013-02-03 17:32:00,
2013-02-03 11:37:00,43.5,26.1,29.50,North,357,21.8,27.2,50,0.00,,---,0.00,VWS V14.00,2013-02-03 17:37:00,
2013-02-03 11:42:00,43.9,26.5,29.50,NW,315,16.4,20.7,50,0.00,,---,0.00,VWS V14.00,2013-02-03 17:42:00,
2013-02-03 11:47:00,43.0,24.6,29.50,NNW,348,16.4,20.7,48,0.00,,---,0.00,VWS V14.00,2013-02-03 17:47:00,
2013-02-03 11:52:00,43.0,25.1,29.50,NW,325,21.8,27.2,49,0.00,,---,0.00,VWS V14.00,2013-02-03 17:52:00,
2013-02-03 11:57:00,42.8,25.5,29.50,NNW,337,12.4,15.9,50,0.00,,---,0.00,VWS V14.00,2013-02-03 17:57:00,
2013-02-03 12:02:00,43.5,26.1,29.50,North,0,12.1,15.5,50,0.00,,---,0.00,VWS V14.00,2013-02-03 18:02:00,
2013-02-03 12:07:00,43.5,25.6,29.50,North,5,8.7,19.1,49,0.00,,---,0.00,VWS V14.00,2013-02-03 18:07:00,
2013-02-03 12:12:00,43.3,24.0,29.50,NNW,330,15.1,19.1,46,0.00,,---,0.00,VWS V14.00,2013-02-03 18:12:00,
2013-02-03 12:17:00,43.0,23.6,29.50,North,357,12.1,16.7,46,0.00,,---,0.00,VWS V14.00,2013-02-03 18:17:00,
2013-02-03 12:22:00,42.4,23.6,29.50,North,357,19.1,28.8,47,0.00,,---,0.00,VWS V14.00,2013-02-03 18:22:00,
2013-02-03 12:27:00,42.4,23.6,29.50,North,353,22.5,32.4,47,0.00,,---,0.00,VWS V14.00,2013-02-03 18:27:00,
2013-02-03 12:32:00,42.1,22.8,29.50,NNW,327,23.8,29.6,46,0.00,,---,0.00,VWS V14.00,2013-02-03 18:32:00,
2013-02-03 12:37:00,41.7,23.0,29.50,North,357,15.1,28.8,47,0.00,,---,0.00,VWS V14.00,2013-02-03 18:37:00,
2013-02-03 12:42:00,42.3,23.0,29.50,West,265,4.7,15.5,46,0.00,,---,0.00,VWS V14.00,2013-02-03 18:42:00,
2013-02-03 12:47:00,42.8,23.5,29.50,West,277,5.4,23.1,46,0.00,,---,0.00,VWS V14.00,2013-02-03 18:47:00,
2013-02-03 12:52:00,42.4,22.6,29.50,WNW,296,12.1,16.7,45,0.00,,---,0.00,VWS V14.00,2013-02-03 18:52:00,
2013-02-03 12:57:00,42.3,22.5,29.50,North,349,16.4,20.7,45,0.00,,---,0.00,VWS V14.00,2013-02-03 18:57:00,
2013-02-03 13:02:00,42.4,23.1,29.50,North,8,7.4,19.9,46,0.00,,---,0.00,VWS V14.00,2013-02-03 19:02:00,
2013-02-03 13:07:00,42.4,23.1,29.50,NW,307,9.4,12.3,46,0.00,,---,0.00,VWS V14.00,2013-02-03 19:07:00,
2013-02-03 13:12:00,42.4,23.1,29.50,NW,310,11.4,15.5,46,0.00,,---,0.00,VWS V14.00,2013-02-03 19:12:00,
2013-02-03 13:17:00,42.1,22.8,29.50,North,353,17.8,22.3,46,0.00,,---,0.00,VWS V14.00,2013-02-03 19:17:00,
2013-02-03 13:22:00,42.6,23.3,29.50,WNW,297,9.4,17.5,46,0.00,,---,0.00,VWS V14.00,2013-02-03 19:22:00,
2013-02-03 13:27:00,42.3,23.0,29.50,NW,317,11.4,14.7,46,0.00,,---,0.00,VWS V14.00,2013-02-03 19:27:00,
2013-02-03 13:32:00,42.3,23.0,29.50,NNW,345,15.8,19.9,46,0.00,,---,0.00,VWS V14.00,2013-02-03 19:32:00,
2013-02-03 13:37:00,42.4,23.1,29.50,WNW,298,8.7,11.5,46,0.00,,---,0.00,VWS V14.00,2013-02-03 19:37:00,
2013-02-03 13:42:00,42.4,23.1,29.50,NW,308,8.7,12.3,46,0.00,,---,0.00,VWS V14.00,2013-02-03 19:42:00,
2013-02-03 13:47:00,43.2,23.8,29.50,WNW,293,9.4,12.3,46,0.00,,---,0.00,VWS V14.00,2013-02-03 19:47:00,
2013-02-03 13:52:00,43.3,24.0,29.50,WNW,303,9.4,16.7,46,0.00,,---,0.00,VWS V14.00,2013-02-03 19:52:00,
2013-02-03 13:57:00,43.9,23.9,29.50,NNW,331,7.4,19.1,45,0.00,,---,0.00,VWS V14.00,2013-02-03 19:57:00,
2013-02-03 14:02:00,43.3,23.4,29.50,WNW,297,12.1,15.5,45,0.00,,---,0.00,VWS V14.00,2013-02-03 20:02:00,
2013-02-03 14:07:00,43.3,23.4,29.50,NW,314,13.1,16.7,45,0.00,,---,0.00,VWS V14.00,2013-02-03 20:07:00,
2013-02-03 14:12:00,43.9,23.4,29.50,WNW,290,5.4,10.7,44,0.00,,---,0.00,VWS V14.00,2013-02-03 20:12:00,
2013-02-03 14:17:00,44.1,23.6,29.50,NNW,328,15.1,19.1,44,0.00,,---,0.00,VWS V14.00,2013-02-03 20:17:00,
2013-02-03 14:22:00,44.2,23.7,29.50,WNW,290,14.4,18.3,44,0.00,,---,0.00,VWS V14.00,2013-02-03 20:22:00,
2013-02-03 14:27:00,44.2,23.7,29.50,West,268,13.1,16.7,44,0.00,,---,0.00,VWS V14.00,2013-02-03 20:27:00,
2013-02-03 14:32:00,45.0,24.4,29.50,North,0,15.1,19.1,44,0.00,,---,0.00,VWS V14.00,2013-02-03 20:32:00,
2013-02-03 14:37:00,44.1,23.0,29.50,North,357,13.1,16.7,43,0.00,,---,0.00,VWS V14.00,2013-02-03 20:37:00,
2013-02-03 14:42:00,44.2,23.2,29.50,NNW,329,12.1,15.5,43,0.00,,---,0.00,VWS V14.00,2013-02-03 20:42:00,
2013-02-03 14:47:00,44.4,23.9,29.50,NW,322,11.4,14.7,44,0.00,,---,0.00,VWS V14.00,2013-02-03 20:47:00,
2013-02-03 14:52:00,44.4,23.9,29.50,WNW,285,13.1,16.7,44,0.00,,---,0.00,VWS V14.00,2013-02-03 20:52:00,
2013-02-03 14:57:00,44.6,23.5,29.50,NW,305,13.1,19.9,43,0.00,,---,0.00,VWS V14.00,2013-02-03 20:57:00,
2013-02-03 15:02:00,44.6,23.5,29.50,NW,314,9.4,14.7,43,0.00,,---,0.00,VWS V14.00,2013-02-03 21:02:00,
2013-02-03 15:07:00,44.1,23.0,29.50,NW,313,11.4,14.7,43,0.00,,---,0.00,VWS V14.00,2013-02-03 21:07:00,
2013-02-03 15:12:00,44.6,23.5,29.50,NNW,342,12.4,16.7,43,0.00,,---,0.00,VWS V14.00,2013-02-03 21:12:00,
2013-02-03 15:17:00,44.6,23.5,29.50,WNW,295,8.1,19.9,43,0.00,,---,0.00,VWS V14.00,2013-02-03 21:17:00,
2013-02-03 15:22:00,44.6,23.5,29.50,WNW,282,8.7,15.5,43,0.00,,---,0.00,VWS V14.00,2013-02-03 21:22:00,
2013-02-03 15:27:00,44.6,22.9,29.50,WNW,303,5.4,8.2,42,0.00,,---,0.00,VWS V14.00,2013-02-03 21:27:00,
2013-02-03 15:32:00,44.8,23.1,29.50,WNW,301,8.1,10.7,42,0.00,,---,0.00,VWS V14.00,2013-02-03 21:32:00,
2013-02-03 15:37:00,44.4,22.8,29.50,NW,313,8.7,11.5,42,0.00,,---,0.00,VWS V14.00,2013-02-03 21:37:00,
2013-02-03 15:42:00,44.4,22.8,29.50,NW,320,6.0,12.3,42,0.00,,---,0.00,VWS V14.00,2013-02-03 21:42:00,
2013-02-03 15:47:00,44.8,23.1,29.50,NW,313,11.4,14.7,42,0.00,,---,0.00,VWS V14.00,2013-02-03 21:47:00,
2013-02-03 15:52:00,44.1,22.5,29.50,NW,317,7.4,15.5,42,0.00,,---,0.00,VWS V14.00,2013-02-03 21:52:00,
2013-02-03 15:57:00,44.2,22.6,29.50,NNW,333,13.8,17.5,42,0.00,,---,0.00,VWS V14.00,2013-02-03 21:57:00,
2013-02-03 16:02:00,43.9,22.3,29.50,NNE,25,7.4,15.9,42,0.00,,---,0.00,VWS V14.00,2013-02-03 22:02:00,
2013-02-03 16:07:00,44.1,22.5,29.50,WNW,293,8.1,10.7,42,0.00,,---,0.00,VWS V14.00,2013-02-03 22:07:00,
2013-02-03 16:12:00,44.1,22.5,29.50,NW,326,5.4,8.2,42,0.00,,---,0.00,VWS V14.00,2013-02-03 22:12:00,
2013-02-03 16:17:00,43.9,22.3,29.50,NNW,346,4.7,6.6,42,0.00,,---,0.00,VWS V14.00,2013-02-03 22:17:00,
2013-02-03 16:22:00,43.5,22.0,29.50,NNW,339,4.0,11.5,42,0.00,,---,0.00,VWS V14.00,2013-02-03 22:22:00,
2013-02-03 16:27:00,43.3,21.8,29.50,NNW,335,7.4,11.5,42,0.00,,---,0.00,VWS V14.00,2013-02-03 22:27:00,
2013-02-03 16:32:00,42.8,21.3,29.50,NW,317,12.1,15.5,42,0.00,,---,0.00,VWS V14.00,2013-02-03 22:32:00,
2013-02-03 16:37:00,42.4,21.0,29.50,NNW,342,7.4,10.7,42,0.00,,---,0.00,VWS V14.00,2013-02-03 22:37:00,
2013-02-03 16:42:00,42.1,20.7,29.50,NNE,16,11.4,15.5,42,0.00,,---,0.00,VWS V14.00,2013-02-03 22:42:00,
2013-02-03 16:47:00,41.7,20.3,29.50,NNW,341,8.1,10.7,42,0.00,,---,0.00,VWS V14.00,2013-02-03 22:47:00,
2013-02-03 16:52:00,41.4,20.6,29.50,North,353,8.1,13.1,43,0.00,,---,0.00,VWS V14.00,2013-02-03 22:52:00,
2013-02-03 16:57:00,41.2,20.4,29.53,North,349,12.1,15.5,43,0.00,,---,0.00,VWS V14.00,2013-02-03 22:57:00,
2013-02-03 17:02:00,40.6,19.9,29.53,North,357,6.0,9.9,43,0.00,,---,0.00,VWS V14.00,2013-02-03 23:02:00,
2013-02-03 17:07:00,40.3,19.6,29.53,North,357,7.4,9.9,43,0.00,,---,0.00,VWS V14.00,2013-02-03 23:07:00,
2013-02-03 17:12:00,39.7,19.6,29.53,North,2,10.1,13.1,44,0.00,,---,0.00,VWS V14.00,2013-02-03 23:12:00,
2013-02-03 17:17:00,39.4,19.3,29.53,North,357,7.4,9.9,44,0.00,,---,0.00,VWS V14.00,2013-02-03 23:17:00,
2013-02-03 17:22:00,38.5,19.0,29.53,North,353,6.7,9.1,45,0.00,,---,0.00,VWS V14.00,2013-02-03 23:22:00,
2013-02-03 17:27:00,38.5,19.0,29.53,North,357,9.4,12.3,45,0.00,,---,0.00,VWS V14.00,2013-02-03 23:27:00,
2013-02-03 17:32:00,37.9,18.5,29.53,North,2,6.0,8.2,45,0.00,,---,0.00,VWS V14.00,2013-02-03 23:32:00,
2013-02-03 17:37:00,37.6,18.7,29.53,North,10,8.1,10.7,46,0.00,,---,0.00,VWS V14.00,2013-02-03 23:37:00,
2013-02-03 17:42:00,37.4,18.5,29.53,North,357,4.0,5.8,46,0.00,,---,0.00,VWS V14.00,2013-02-03 23:42:00,
2013-02-03 17:48:00,37.2,18.4,29.53,North,11,6.0,8.2,46,0.00,,---,0.00,VWS V14.00,2013-02-03 23:48:00,
2013-02-03 17:52:00,36.7,17.9,29.53,NNE,22,8.1,10.7,46,0.00,,---,0.00,VWS V14.00,2013-02-03 23:52:00,
2013-02-03 17:57:00,36.5,17.7,29.53,North,11,6.7,9.1,46,0.00,,---,0.00,VWS V14.00,2013-02-03 23:57:00,
2013-02-03 18:03:00,36.3,18.0,29.53,NNW,335,7.4,9.9,47,0.00,,---,0.00,VWS V14.00,2013-02-04 00:03:00,
2013-02-03 18:08:00,36.3,18.0,29.53,North,1,8.1,10.7,47,0.00,,---,0.00,VWS V14.00,2013-02-04 00:08:00,
2013-02-03 18:13:00,35.6,17.4,29.53,NNE,21,6.0,8.2,47,0.00,,---,0.00,VWS V14.00,2013-02-04 00:13:00,
2013-02-03 18:18:00,35.8,17.5,29.53,NNE,15,4.0,6.6,47,0.00,,---,0.00,VWS V14.00,2013-02-04 00:18:00,
2013-02-03 18:23:00,35.8,17.5,29.53,NNE,26,5.4,7.4,47,0.00,,---,0.00,VWS V14.00,2013-02-04 00:23:00,
2013-02-03 18:28:00,35.8,17.5,29.53,NNE,28,3.4,5.0,47,0.00,,---,0.00,VWS V14.00,2013-02-04 00:28:00,
2013-02-03 18:33:00,35.4,17.2,29.53,NNE,28,5.4,7.4,47,0.00,,---,0.00,VWS V14.00,2013-02-04 00:33:00,
2013-02-03 18:38:00,35.1,17.4,29.53,NNE,28,0.0,6.6,48,0.00,,---,0.00,VWS V14.00,2013-02-04 00:38:00,
2013-02-03 18:43:00,34.7,17.0,29.53,NNE,28,4.0,5.8,48,0.00,,---,0.00,VWS V14.00,2013-02-04 00:43:00,
2013-02-03 18:48:00,34.5,16.9,29.53,NNE,28,4.0,5.8,48,0.00,,---,0.00,VWS V14.00,2013-02-04 00:48:00,
2013-02-03 18:53:00,34.3,17.2,29.53,NNE,28,0.0,1.0,49,0.00,,---,0.00,VWS V14.00,2013-02-04 00:53:00,
2013-02-03 18:58:00,34.3,17.2,29.53,NNE,28,0.0,1.0,49,0.00,,---,0.00,VWS V14.00,2013-02-04 00:58:00,
2013-02-03 19:03:00,33.8,16.7,29.53,NNE,28,4.7,6.6,49,0.00,,---,0.00,VWS V14.00,2013-02-04 01:03:00,
2013-02-03 19:08:00,33.8,17.1,29.53,NNE,28,4.7,6.6,50,0.00,,---,0.00,VWS V14.00,2013-02-04 01:08:00,
2013-02-03 19:13:00,33.8,17.1,29.53,NNE,28,4.0,5.8,50,0.00,,---,0.00,VWS V14.00,2013-02-04 01:13:00,
2013-02-03 19:18:00,33.8,17.1,29.53,NNE,28,0.0,1.0,50,0.00,,---,0.00,VWS V14.00,2013-02-04 01:18:00,
2013-02-03 19:23:00,33.3,17.1,29.53,NNE,28,0.0,1.0,51,0.00,,---,0.00,VWS V14.00,2013-02-04 01:23:00,
2013-02-03 19:28:00,33.1,17.4,29.53,NNE,28,0.0,1.0,52,0.00,,---,0.00,VWS V14.00,2013-02-04 01:28:00,
2013-02-03 19:33:00,32.9,17.2,29.53,NE,35,0.0,1.0,52,0.00,,---,0.00,VWS V14.00,2013-02-04 01:33:00,
2013-02-03 19:38:00,32.9,17.2,29.53,NE,37,3.4,5.0,52,0.00,,---,0.00,VWS V14.00,2013-02-04 01:38:00,
2013-02-03 19:43:00,32.7,17.0,29.53,NE,37,4.7,6.6,52,0.00,,---,0.00,VWS V14.00,2013-02-04 01:43:00,
2013-02-03 19:48:00,32.5,17.3,29.53,NE,37,0.0,6.6,53,0.00,,---,0.00,VWS V14.00,2013-02-04 01:48:00,
2013-02-03 19:53:00,32.4,17.1,29.53,NE,37,4.0,5.8,53,0.00,,---,0.00,VWS V14.00,2013-02-04 01:53:00,
2013-02-03 19:58:00,32.4,17.1,29.53,NE,37,0.0,1.0,53,0.00,,---,0.00,VWS V14.00,2013-02-04 01:58:00,
2013-02-03 20:03:00,32.4,17.1,29.53,NE,37,0.0,1.0,53,0.00,,---,0.00,VWS V14.00,2013-02-04 02:03:00,
2013-02-03 20:08:00,32.2,17.0,29.53,NE,37,0.0,1.0,53,0.00,,---,0.00,VWS V14.00,2013-02-04 02:08:00,
2013-02-03 20:13:00,32.2,17.0,29.53,NE,37,0.0,1.0,53,0.00,,---,0.00,VWS V14.00,2013-02-04 02:13:00,
2013-02-03 20:18:00,32.0,16.8,29.53,ENE,64,4.0,5.8,53,0.00,,---,0.00,VWS V14.00,2013-02-04 02:18:00,
2013-02-03 20:23:00,32.0,17.2,29.53,ENE,64,0.0,1.0,54,0.00,,---,0.00,VWS V14.00,2013-02-04 02:23:00,
2013-02-03 20:28:00,31.8,17.1,29.53,ENE,64,0.0,1.0,54,0.00,,---,0.00,VWS V14.00,2013-02-04 02:28:00,
2013-02-03 20:33:00,31.8,17.1,29.53,ENE,64,3.4,5.0,54,0.00,,---,0.00,VWS V14.00,2013-02-04 02:33:00,
2013-02-03 20:38:00,31.8,17.1,29.53,ENE,64,0.0,1.0,54,0.00,,---,0.00,VWS V14.00,2013-02-04 02:38:00,
2013-02-03 20:43:00,31.5,17.2,29.53,ENE,64,0.0,1.0,55,0.00,,---,0.00,VWS V14.00,2013-02-04 02:43:00,
2013-02-03 20:48:00,31.3,17.0,29.53,ENE,64,0.0,1.0,55,0.00,,---,0.00,VWS V14.00,2013-02-04 02:48:00,
2013-02-03 20:53:00,31.1,16.8,29.53,ENE,64,0.0,1.0,55,0.00,,---,0.00,VWS V14.00,2013-02-04 02:53:00,
2013-02-03 20:58:00,30.9,16.7,29.53,ENE,64,0.0,1.0,55,0.00,,---,0.00,VWS V14.00,2013-02-04 02:58:00,
2013-02-03 21:03:00,30.9,17.1,29.53,ENE,64,0.0,1.0,56,0.00,,---,0.00,VWS V14.00,2013-02-04 03:03:00,
2013-02-03 21:08:00,30.7,16.9,29.53,East,92,5.4,7.4,56,0.00,,---,0.00,VWS V14.00,2013-02-04 03:08:00,
2013-02-03 21:13:00,30.6,16.7,29.53,East,92,4.0,6.6,56,0.00,,---,0.00,VWS V14.00,2013-02-04 03:13:00,
2013-02-03 21:18:00,30.6,17.1,29.53,East,92,4.0,6.6,57,0.00,,---,0.00,VWS V14.00,2013-02-04 03:18:00,
2013-02-03 21:23:00,30.6,17.1,29.53,East,100,3.4,5.0,57,0.00,,---,0.00,VWS V14.00,2013-02-04 03:23:00,
2013-02-03 21:28:00,30.6,17.1,29.53,East,99,0.0,1.0,57,0.00,,---,0.00,VWS V14.00,2013-02-04 03:28:00,
2013-02-03 21:33:00,30.6,17.1,29.53,East,99,3.4,5.0,57,0.00,,---,0.00,VWS V14.00,2013-02-04 03:33:00,
2013-02-03 21:38:00,30.6,17.6,29.53,SSE,150,4.0,5.8,58,0.00,,---,0.00,VWS V14.00,2013-02-04 03:38:00,
2013-02-03 21:43:00,30.4,17.4,29.53,SE,142,4.0,6.6,58,0.00,,---,0.00,VWS V14.00,2013-02-04 03:43:00,
2013-02-03 21:48:00,30.2,17.2,29.53,SE,146,5.4,7.4,58,0.00,,---,0.00,VWS V14.00,2013-02-04 03:48:00,
2013-02-03 21:53:00,30.2,17.2,29.53,SSE,147,4.0,5.8,58,0.00,,---,0.00,VWS V14.00,2013-02-04 03:53:00,
2013-02-03 21:58:00,30.2,17.6,29.53,SSE,147,3.4,5.0,59,0.00,,---,0.00,VWS V14.00,2013-02-04 03:58:00,
2013-02-03 22:03:00,30.0,17.8,29.53,SE,131,4.0,5.8,60,0.00,,---,0.00,VWS V14.00,2013-02-04 04:03:00,
2013-02-03 22:08:00,29.8,18.0,29.50,SE,145,5.4,7.4,61,0.00,,---,0.00,VWS V14.00,2013-02-04 04:08:00,
2013-02-03 22:13:00,30.0,18.6,29.50,SE,137,3.4,5.0,62,0.00,,---,0.00,VWS V14.00,2013-02-04 04:13:00,
2013-02-03 22:18:00,30.0,19.0,29.50,East,101,5.4,7.4,63,0.00,,---,0.00,VWS V14.00,2013-02-04 04:18:00,
2013-02-03 22:23:00,30.0,19.0,29.50,SE,144,4.0,7.4,63,0.00,,---,0.00,VWS V14.00,2013-02-04 04:23:00,
2013-02-03 22:28:00,30.0,19.0,29.50,SSE,157,4.7,8.2,63,0.00,,---,0.00,VWS V14.00,2013-02-04 04:28:00,
2013-02-03 22:33:00,30.2,19.1,29.50,SE,143,5.4,8.2,63,0.00,,---,0.00,VWS V14.00,2013-02-04 04:33:00,
2013-02-03 22:38:00,30.2,19.1,29.50,SSE,150,5.4,7.4,63,0.00,,---,0.00,VWS V14.00,2013-02-04 04:38:00,
2013-02-03 22:43:00,30.2,19.1,29.50,SE,145,5.4,7.4,63,0.00,,---,0.00,VWS V14.00,2013-02-04 04:43:00,
2013-02-03 22:48:00,30.2,19.1,29.50,SE,143,6.0,8.2,63,0.00,,---,0.00,VWS V14.00,2013-02-04 04:48:00,
2013-02-03 22:53:00,30.0,19.3,29.50,SE,139,6.0,8.2,64,0.00,,---,0.00,VWS V14.00,2013-02-04 04:53:00,
2013-02-03 22:58:00,29.8,19.2,29.50,SE,146,7.4,9.9,64,0.00,,---,0.00,VWS V14.00,2013-02-04 04:58:00,
2013-02-03 23:00:00,29.8,19.2,29.50,SE,145,4.0,8.2,64,0.00,,---,0.00,VWS V14.00,2013-02-04 05:00:00,
2013-02-03 23:01:00,29.8,19.2,29.50,SE,145,4.0,5.8,64,0.00,,---,0.00,VWS V14.00,2013-02-04 05:01:00,
2013-02-03 23:06:00,29.8,19.2,29.50,SSE,149,6.0,8.2,64,0.00,,---,0.00,VWS V14.00,2013-02-04 05:06:00,
2013-02-03 23:11:00,29.8,19.2,29.50,SE,143,6.0,8.2,64,0.00,,---,0.00,VWS V14.00,2013-02-04 05:11:00,
2013-02-03 23:16:00,29.8,19.2,29.50,SSE,161,5.4,7.4,64,0.00,,---,0.00,VWS V14.00,2013-02-04 05:16:00,
2013-02-03 23:21:00,29.8,19.2,29.50,SSE,162,4.0,6.6,64,0.00,,---,0.00,VWS V14.00,2013-02-04 05:21:00,
2013-02-03 23:26:00,29.8,19.2,29.50,SSE,162,4.7,6.6,64,0.00,,---,0.00,VWS V14.00,2013-02-04 05:26:00,
2013-02-03 23:31:00,29.7,19.0,29.50,SSE,151,4.7,6.6,64,0.00,,---,0.00,VWS V14.00,2013-02-04 05:31:00,
2013-02-03 23:36:00,29.7,19.0,29.47,SSE,152,4.7,6.6,64,0.00,,---,0.00,VWS V14.00,2013-02-04 05:36:00,
2013-02-03 23:41:00,29.7,19.0,29.47,SSE,152,4.7,6.6,64,0.00,,---,0.00,VWS V14.00,2013-02-04 05:41:00,
2013-02-03 23:46:00,29.5,18.8,29.47,SE,144,5.4,8.2,64,0.00,,---,0.00,VWS V14.00,2013-02-04 05:46:00,
2013-02-03 23:51:00,29.5,18.8,29.47,SSE,151,4.7,6.6,64,0.00,,---,0.00,VWS V14.00,2013-02-04 05:51:00,
2013-02-03 23:56:00,29.5,19.2,29.47,SSE,159,5.4,7.4,65,0.00,,---,0.00,VWS V14.00,2013-02-04 05:56:00,